TimePDT,TemperatureF,Dew PointF,Humidity,Sea Level PressureIn,VisibilityMPH,Wind Direction,Wind SpeedMPH,Gust SpeedMPH,PrecipitationIn,Events,Conditions,WindDirDegrees,DateUTC
12:56 AM,54.0,52.0,93,30.10,10.0,SSW,3.5,-,N/A,,Partly Cloudy,210,2013-08-04 07:56:00
1:56 AM,53.1,51.1,93,30.09,5.0,SSW,5.8,-,N/A,,Scattered Clouds,210,2013-08-04 08:56:00
2:08 AM,53.6,51.8,94,30.08,1.5,North,-9999.0,-,N/A,,Scattered Clouds,0,2013-08-04 09:08:00
2:18 AM,51.8,51.8,100,30.07,0.8,SSW,3.5,-,N/A,,Mostly Cloudy,210,2013-08-04 09:18:00
2:56 AM,52.0,51.1,97,30.09,0.8,SSW,3.5,-,N/A,,Overcast,210,2013-08-04 09:56:00
3:56 AM,52.0,52.0,100,30.09,0.8,SW,3.5,-,N/A,,Overcast,230,2013-08-04 10:56:00
4:34 AM,51.8,51.8,100,30.07,0.2,SSW,4.6,-,N/A,Fog,Fog,210,2013-08-04 11:34:00
4:56 AM,52.0,52.0,100,30.08,0.5,SSW,4.6,-,N/A,Fog,Fog,210,2013-08-04 11:56:00
5:56 AM,52.0,51.1,97,30.09,0.5,SW,4.6,-,N/A,Fog,Fog,220,2013-08-04 12:56:00
6:56 AM,52.0,52.0,100,30.09,0.5,Calm,Calm,-,N/A,Fog,Fog,0,2013-08-04 13:56:00
7:56 AM,53.1,52.0,96,30.10,1.5,SW,3.5,-,N/A,,Overcast,230,2013-08-04 14:56:00
8:56 AM,53.1,52.0,96,30.10,1.0,WSW,6.9,-,N/A,,Overcast,240,2013-08-04 15:56:00
9:45 AM,53.6,51.8,94,30.09,4.0,WSW,4.6,-,N/A,,Mostly Cloudy,240,2013-08-04 16:45:00
9:56 AM,55.0,52.0,89,30.10,5.0,WSW,4.6,-,N/A,,Mostly Cloudy,240,2013-08-04 16:56:00
10:56 AM,57.0,52.0,83,30.10,10.0,West,3.5,-,N/A,,Mostly Cloudy,270,2013-08-04 17:56:00
11:56 AM,59.0,52.0,78,30.09,10.0,West,6.9,-,N/A,,Scattered Clouds,270,2013-08-04 18:56:00
12:56 PM,60.1,53.1,78,30.08,10.0,West,8.1,-,N/A,,Partly Cloudy,270,2013-08-04 19:56:00
1:56 PM,60.1,53.1,78,30.06,10.0,West,6.9,-,N/A,,Partly Cloudy,270,2013-08-04 20:56:00
2:56 PM,62.1,54.0,75,30.04,10.0,West,6.9,-,N/A,,Partly Cloudy,270,2013-08-04 21:56:00
3:56 PM,63.0,55.0,75,30.02,10.0,West,4.6,-,N/A,,Partly Cloudy,280,2013-08-04 22:56:00
4:56 PM,60.1,54.0,80,30.01,10.0,West,5.8,-,N/A,,Partly Cloudy,280,2013-08-04 23:56:00
5:56 PM,60.1,54.0,80,30.00,10.0,West,4.6,-,N/A,,Partly Cloudy,260,2013-08-05 00:56:00
6:56 PM,59.0,53.1,81,30.00,10.0,WSW,4.6,-,N/A,,Scattered Clouds,250,2013-08-05 01:56:00
7:56 PM,57.0,53.1,87,30.00,10.0,West,3.5,-,N/A,,Scattered Clouds,260,2013-08-05 02:56:00
8:56 PM,55.9,53.1,90,30.01,10.0,SW,3.5,-,N/A,,Scattered Clouds,220,2013-08-05 03:56:00
9:56 PM,55.9,53.1,90,30.01,10.0,SW,4.6,-,N/A,,Scattered Clouds,220,2013-08-05 04:56:00
10:56 PM,54.0,52.0,93,30.01,10.0,SW,4.6,-,N/A,,Scattered Clouds,230,2013-08-05 05:56:00
11:56 PM,54.0,52.0,93,30.02,10.0,SW,3.5,-,N/A,,Scattered Clouds,230,2013-08-05 06:56:00